Tracking 18844 objects as of 21-Nov-2017
HD Live streaming from Space Station
objects crossing your sky now

OPS 6393 (FLTSATCOM 3)

Track OPS 6393 (FLTSATCOM 3) now!
OPS 6393 (FLTSATCOM 3) is classified as:


NORAD ID: 11669
Int'l Code: 1980-004A
Perigee: 35,721.4 km
Apogee: 35,921.8 km
Inclination: 12.1 °
Period: 1,437.5 minutes
Semi major axis: 42192 km
RCS: 3.9811 m2 (large)
Launch date: January 18, 1980
Source: United States (US)
Launch site: AIR FORCE EASTERN TEST RANGE (AFETR)
aabbcc
Your satellite tracking list
Your tracking list is empty




NASA's NSSDC Master Catalog

Two Line Element Set (TLE):
1 11669U 80004A   17324.49351507 -.00000249 +00000-0 +00000-0 0  9992
2 11669 012.0762 331.7962 0023751 173.1365 016.0301 01.00172536138466
Source of the keplerian elements: AFSPC